STARLINK-34057, 63814

Orbit data source: Space-Track

STARLINK-34057, 63814 is a payload satellite owned by SpaceX/Seattle (US) in LEO that was launched on Sun, 04 May 2025 UTC via an FALCON 9 launch vehicle from the Air Force Eastern Test Range (AFETR). Payload-class satellites include a variety of spacecraft equipped with specific instruments for various scientific and technological missions. These include communications satellites like Starlink; space stations such as the ISS; scientific satellites like the Hubble; Earth observation satellites from companies like Planet Labs, Umbra, and HawkEye 360; GPS; miniature CubeSats for education and research; and military/defense satellites.

Loading next visibility...
Identifier
63814, 2025-092L
Orbit
LEO
Country
Flag of USUS
Related business
Manufacturer
SpaceX/Seattle
Mission
Operational Commercial Communications
Bus & Motor
STARLINK V2MO, Unknown motor
Mass
575 kg wet, ~530 kg dry
Launch date (UTC)
2025-05-04 (1 year ago)
Launch vehicle
FALCON 9
Launch site
Air Force Eastern Test Range (AFETR)
Object type
Payload
Rocket body
Debris
Shape & HBR
Box + 2 Pan, 17.7 m
Radar Cross Section
36.964 m², Large (>1 m²)

Expand to show TLE details & history
Last TLE update: 9 hours ago

TLE from 9 hours ago
0 STARLINK-34057
1 63814U 25092L   26150.78648707  .00026427  00000-0  96625-3 0  9993
2 63814  42.9983  68.6096 0001358 256.1572 103.9128 15.27585845 61178
Epoch: 2026-05-30T18:52Z
TLE epoch observation values (Epoch: 2026-05-30T18:52:32.482Z)
Latitude
-0.00007°
Longitude
-102.82333°
Altitude
483.031 km
Speed
7.626 km/s
True Right ascension
04h 34m 26s
True Declination
0° 00' 00"
Sunlit
Object was in daylight at epoch
Visualization orbit readout
Latitude
Unknown
Longitude
Unknown
Altitude
Unknown
Speed
Unknown
Apparent Right ascension
Unknown
Apparent Declination
Unknown
Sunlit
N/A
Visualization observer readout
Local Sidereal Time
13:28:36
Azimuth
Unknown
Elevation
Unknown
Doppler factor
Unknown
Orbital elements
Apogee altitude
485.909 km
Perigee altitude
484.045 km
Semi-major axis
6,863.114 km
Eccentricity
0.00014
Inclination
42.9983°
RAAN
68.6096°
Arg. of periapsis
256.1572°
True anomaly
103.9279°
Mean anomaly
103.9128°
Eccentric anomaly
103.92035°
Mean motion
3.81734 °/min
Orbital period
94.31 mins
BSTAR
0.00096625
Loading maneuver chart data...
Computing Atmospheric mass density...
Loading historical data...
Loading historical data...
Loading historical data...
Loading historical data...
Loading historical data...
Loading historical data...
Loading historical data...

Documentation

Showing up to 5 results
|